Printer-friendly version

IAU Minor Planet Center

Minor Planet Center

MPEC 2006-A60 : 2006 AX44

The following Minor Planet Electronic Circular may be linked-to from your own Web pages, but must not otherwise be redistributed electronically.


Read MPEC 2006-A59 Read MPEC 2006-A61


M.P.E.C. 2006-A60                                Issued 2006 Jan. 11, 12:58 UT

     The Minor Planet Electronic Circulars contain information on unusual
         minor planets and routine data on comets.  They are published
   on behalf of Commission 20 of the International Astronomical Union by the
          Minor Planet Center, Smithsonian Astrophysical Observatory,
                          Cambridge, MA 02138, U.S.A.

                  Supported in part by the Brinson Foundation
                  Supported in part by the TABASGO Foundation
             Prepared using the Tamkin Foundation Computer Network

                              MPC@CFA.HARVARD.EDU
          URL http://cfa-www.harvard.edu/iau/mpc.html  ISSN 1523-6714

                                   2006 AX44

Observations:
     K06A44X* C2006 01 10.33329 08 03 09.14 +20 20 15.8          21.6 V EA060G96
     K06A44X  C2006 01 10.33865 08 03 09.72 +20 20 19.2          21.4 V EA060G96
     K06A44X  C2006 01 10.34403 08 03 10.29 +20 20 23.2          21.1 V EA060G96
     K06A44X  C2006 01 10.34939 08 03 10.90 +20 20 27.3          20.6 V EA060G96
     K06A44X  C2006 01 10.39265 08 03 15.62 +20 20 57.1          21.2 V EA060G96
     K06A44X  C2006 01 10.40042 08 03 16.48 +20 21 02.4          21.2 V EA060G96
     K06A44X  C2006 01 10.40829 08 03 17.35 +20 21 07.8          21.1 V EA060G96
     K06A44X  C2006 01 10.49836 08 03 27.69 +20 22 04.6          20.7 V EA060G96
     K06A44X  C2006 01 10.50054 08 03 27.95 +20 22 07.2          20.8 V EA060G96
     K06A44X  C2006 01 11.34148 08 05 23.86 +20 32 29.4                 EA060291
     K06A44X  C2006 01 11.34572 08 05 24.33 +20 32 32.0                 EA060291
     K06A44X  C2006 01 11.34994 08 05 24.82 +20 32 35.0                 EA060291

Observer details:
291 LPL/Spacewatch II.  Observer A. S. Descour.  1.8-m f/2.7 reflector + CCD.
G96 Mt. Lemmon Survey.  Observer R. Hill.  Measurers E. C. Beshore,
    E. J. Christensen, G. J. Garradd, A. D. Grauer, R. E. Hill, R. A. Kowalski,
    S. M. Larson, R. H. McNaught.  1.5-m reflector + CCD.

Orbital elements:
2006 AX44                                                Earth MOID = 0.0866 AU
Epoch 2006 Mar. 6.0 TT = JDT 2453800.5                  MPC
M   8.49456              (2000.0)            P               Q
n   0.48406079     Peri.   36.58764     -0.84580504     -0.53208207
a   1.6064583      Node   111.22230     +0.47908199     -0.78950228
e   0.3333492      Incl.    2.38317     +0.23472171     -0.30590001
P   2.04           H   24.5           G   0.15           U   9
Residuals in seconds of arc
060110 G96  0.0   0.1+    060110 G96  0.1+  0.1+    060110 G96  0.1-  0.5+
060110 G96  0.1-  0.3-    060110 G96  0.1+  0.1+    060111 291  0.0   0.4+
060110 G96  0.3-  0.1-    060110 G96  0.1+  0.3+    060111 291  0.1-  0.1-
060110 G96  0.1+  0.2+    060110 G96  0.0   0.8-    060111 291  0.1+  0.2-

Ephemeris:
2006 AX44                a,e,i = 1.61, 0.33, 2                   q = 1.0709
Date    TT    R. A. (2000) Decl.     Delta      r     Elong.  Phase     V
2006 01 05    07 52.44   +19 24.0    0.163    1.143   167.9    10.4    21.5
2006 01 15    08 14.27   +21 21.0    0.131    1.114   173.4     5.8    20.8
2006 01 25    08 45.62   +23 58.4    0.108    1.092   173.7     5.7    20.3
2006 02 04    09 29.80   +26 35.7    0.0934   1.078   168.7    10.3    20.2
2006 02 14    10 25.04   +27 48.3    0.0872   1.071   163.2    15.5    20.2
2006 02 24    11 19.97   +26 38.3    0.0892   1.073   159.0    19.3    20.4
2006 03 06    12 02.63   +23 34.5    0.0988   1.084   157.6    20.5    20.7
2006 03 16    12 30.47   +19 42.4    0.115    1.103   158.7    19.2    21.0
2006 03 26    12 46.67   +15 48.6    0.138    1.128   160.9    16.8    21.4
2006 04 05    12 55.80   +12 07.7    0.167    1.160   162.0    15.5    21.8

Timothy B. Spahr             (C) Copyright 2006 MPC           M.P.E.C. 2006-A60

Read MPEC 2006-A59 Read MPEC 2006-A61


Our Web policy. Index to the CBAT/MPC/ICQ pages.


Valid HTML 4.01!